Flag for Bahrain Weather past 2 weeks in Riffa, Bahrain

Now
70 °F

Passing clouds.


Feels Like: 70 °F
Forecast: 68 / 80 °F
Wind: 9 mph from Northwest

Location: Bahrain International Airport

Current Time: Mar 28, 2015 at 1:28:58 AM

Latest Report: Mar 28, 2015 at 12:00 AM


Visibility: 3 mi

Pressure: 30.01 "Hg

Humidity: 88%

Dew point: 66 °F

Location of RiffaLocation

Historic Weather in Riffa — Graph

°F

Riffa temperature yesterday

Maximum temperature yesterday: 81 °F (at 12:00 PM)
Minimum temperature yesterday: 70 °F (at 2:00 AM)
Average temperature yesterday: 73 °F

Past Weeks' High & Low Weather Summary

 TemperatureHumidityPressure
High84 °F (Mar 21, 2:00 PM)94% (Mar 16, 4:00 AM)30.12 "Hg (Mar 16, 4:00 AM)
Low66 °F (Mar 13, 6:00 AM)24% (Mar 13, 2:00 PM)29.80 "Hg (Mar 19, 12:00 AM)
Average73 °F70%29.96 "Hg
* Reported Mar 12 11:00 PM — Mar 27 11:00 PM, Riffa, Weather by CustomWeather, © 2015

Note: Actual official high and low records may vary slightly from our data, if they occured in-between our weather recording intervals... More about our weather records

Advertising

Riffa weather history for previous 24 hours

 ConditionsComfort  
Time TempWeatherWind HumidityBarometerVisibility
11:00 PM
Fri, Mar 27
70 °FPassing clouds.14 mph88%30.01 "Hg3 mi
10:00 PM72 °FPassing clouds.10 mph88%30.01 "Hg3 mi
9:00 PM72 °FPassing clouds.9 mph88%30.01 "Hg4 mi
8:00 PM72 °FPassing clouds.8 mph83%30.01 "Hg4 mi
7:00 PM72 °FClear.7 mph83%29.98 "Hg4 mi
6:00 PM73 °FPassing clouds.9 mph78%29.98 "Hg4 mi
5:00 PM73 °FSunny.13 mph78%29.95 "Hg10 mi
4:00 PM75 °FSunny.12 mph74%29.95 "Hg10 mi
3:00 PM77 °FPassing clouds.10 mph61%29.98 "HgN/A
2:00 PM79 °FPassing clouds.10 mph54%29.98 "HgN/A
1:00 PM81 °FPassing clouds.7 mph51%29.98 "HgN/A
12:00 PM81 °FPassing clouds.6 mph54%30.01 "HgN/A
11:00 AM79 °FPassing clouds.8 mph58%30.04 "HgN/A
10:00 AM77 °FPassing clouds.7 mph61%30.04 "HgN/A
9:00 AM75 °FSunny.9 mph65%30.04 "Hg10 mi
8:00 AM73 °FSunny.5 mph74%30.04 "Hg10 mi
7:00 AM72 °FSunny.1 mph83%30.01 "Hg10 mi
6:00 AM70 °FSunny.No wind83%29.98 "Hg10 mi
5:00 AM70 °FClear.No wind83%29.98 "Hg10 mi
4:00 AM70 °FPassing clouds.3 mph83%29.95 "HgN/A
3:00 AM70 °FClear.3 mph83%29.95 "Hg10 mi
2:00 AM70 °FClear.No wind83%29.95 "Hg10 mi
1:00 AM72 °FPassing clouds.5 mph78%29.95 "HgN/A
Weather by CustomWeather, © 2015

See weather overviewHow to use our weather pages